Moses Lake, WA

6:15 PM PDT on July 20, 2017 (GMT -0700)
Grant County International

Weather History for KMWH - April, 2014

Change the Weather History Date:

Thursday, April 24, 2014

  Actual Average Record
Temperature  
Mean Temperature 56 °F 52 °F  
Max Temperature 66 °F 66 °F 82 °F (2012)
Min Temperature 46 °F 38 °F 25 °F (2002)
Degree Days  
Heating Degree Days 9 13  
Month to date heating degree days 293 373  
Since 1 July heating degree days 5438 5545  
Cooling Degree Days 0 0  
Month to date cooling degree days 0 0  
Year to date cooling degree days 0 0  
Growing Degree Days 6 (Base 50)    
Moisture  
Dew Point 41 °F    
Average Humidity 60    
Maximum Humidity 93    
Minimum Humidity 27    
Precipitation  
Precipitation 0.11 in 0.02 in 0.27 in (1983)
Month to date precipitation 0.52 0.57  
Year to date precipitation 2.38 3.29  
Sea Level Pressure  
Sea Level Pressure 29.74 in    
Wind  
Wind Speed 11 mph (SSW)    
Max Wind Speed 20 mph    
Max Gust Speed 27 mph    
Visibility 10 miles    
Events Rain    
T = Trace of Precipitation, MM = Missing Value Source: NWS Daily Summary

Daily Weather History Graph

Daily Weather History Graph

Search for Another Location

Airport or City:

Trip Planner

Search our weather history database for the weather conditions in past years. The results will help you decide how hot, cold, wet, or windy it might be!

Date:

Astronomy

Apr. 24, 2014 Rise Set
Actual Time 5:52 AM PDT 7:58 PM PDT
Civil Twilight 5:19 AM PDT 8:32 PM PDT
Nautical Twilight 4:38 AM PDT 9:13 PM PDT
Astronomical Twilight 3:53 AM PDT 9:59 PM PDT
Moon 3:27 AM PDT (4/24) 3:01 PM PDT (4/24)
Length of Visible Light 15h 12m
Length of Day
14h 06m
Waning Crescent, 23% of the Moon is Illuminated
Apr 24
Waning Crescent
Apr 28
New
May 6
First Quarter
May 14
Full
May 21
Last Quarter

Hourly Weather History & Observations

Time (PDT) Temp. Dew Point Humidity Pressure Visibility Wind Dir Wind Speed Gust Speed Precip Events Conditions
12:52 AM 48.0 °F 46.0 °F 93% 29.75 in 10.0 mi SE 12.7 mph - 0.01 in Rain Light Rain
1:37 AM 48.0 °F 46.0 °F 93% 29.73 in 9.0 mi SSE 12.7 mph - 0.02 in Rain Light Rain
1:52 AM 48.0 °F 46.0 °F 93% 29.74 in 8.0 mi SSE 13.8 mph - 0.03 in Rain Light Rain
2:08 AM 48.0 °F 46.0 °F 93% 29.72 in 8.0 mi SSE 13.8 mph - 0.02 in Rain Light Rain
2:52 AM 48.0 °F 46.0 °F 93% 29.72 in 10.0 mi SSE 15.0 mph - 0.05 in Rain Light Rain
3:52 AM 48.9 °F 46.9 °F 93% 29.70 in 10.0 mi SSE 15.0 mph - 0.01 in Rain Light Rain
4:52 AM 48.9 °F 46.9 °F 93% 29.70 in 10.0 mi SSE 11.5 mph - 0.02 in   Overcast
5:52 AM 48.9 °F 46.0 °F 90% 29.69 in 10.0 mi South 11.5 mph - N/A   Partly Cloudy
6:52 AM 50.0 °F 46.0 °F 86% 29.70 in 10.0 mi South 11.5 mph - N/A   Clear
7:52 AM 51.1 °F 45.0 °F 80% 29.70 in 10.0 mi South 11.5 mph - N/A   Clear
8:52 AM 52.0 °F 44.1 °F 74% 29.72 in 10.0 mi SSW 15.0 mph - N/A   Scattered Clouds
9:52 AM 54.0 °F 44.1 °F 69% 29.74 in 10.0 mi SSW 13.8 mph - N/A   Mostly Cloudy
10:52 AM 55.9 °F 43.0 °F 62% 29.74 in 10.0 mi SSW 15.0 mph 24.2 mph N/A   Overcast
11:52 AM 57.0 °F 43.0 °F 59% 29.75 in 10.0 mi SW 15.0 mph - N/A   Clear
12:52 PM 59.0 °F 42.1 °F 53% 29.75 in 10.0 mi SW 16.1 mph - N/A   Clear
1:52 PM 62.1 °F 41.0 °F 46% 29.75 in 10.0 mi SSW 11.5 mph - N/A   Mostly Cloudy
2:52 PM 62.1 °F 37.9 °F 41% 29.75 in 10.0 mi WSW 12.7 mph - N/A   Mostly Cloudy
3:52 PM 63.0 °F 35.1 °F 35% 29.75 in 10.0 mi WSW 10.4 mph - N/A   Mostly Cloudy
4:52 PM 66.0 °F 34.0 °F 30% 29.74 in 10.0 mi WSW 11.5 mph 18.4 mph N/A   Scattered Clouds
5:52 PM 64.0 °F 30.9 °F 29% 29.75 in 10.0 mi WSW 13.8 mph - N/A   Clear
6:52 PM 63.0 °F 28.9 °F 28% 29.75 in 10.0 mi West 16.1 mph - N/A   Clear
7:52 PM 57.9 °F 35.1 °F 42% 29.76 in 10.0 mi West 11.5 mph - N/A   Clear
8:52 PM 54.0 °F 32.0 °F 43% 29.79 in 10.0 mi WNW 8.1 mph - N/A   Clear
9:52 PM 48.9 °F 34.0 °F 56% 29.81 in 10.0 mi NNW 6.9 mph - N/A   Clear
10:52 PM 46.9 °F 35.1 °F 63% 29.80 in 10.0 mi North 6.9 mph - N/A   Clear
11:52 PM 46.9 °F 34.0 °F 61% 29.81 in 10.0 mi Calm Calm - N/A   Clear